PST,Max TemperatureF,Mean TemperatureF,Min TemperatureF,Max Dew PointF,MeanDew PointF,Min DewpointF,Max Humidity, Mean Humidity, Min Humidity, Max Sea Level PressureIn, Mean Sea Level PressureIn, Min Sea Level PressureIn, Max VisibilityMiles, Mean VisibilityMiles, Min VisibilityMiles, Max Wind SpeedMPH, Mean Wind SpeedMPH, Max Gust SpeedMPH,PrecipitationIn, CloudCover, Events, WindDirDegrees
2012-12-1,50,41,31,39,36,30,92,74,56,30.12,30.05,29.99,10,10,10,16,8,20,0.00,7,,152
2012-12-2,54,45,36,41,38,30,89,74,59,30.03,29.90,29.79,10,10,10,26,13,35,0.00,6,,173
2012-12-3,53,42,31,36,30,26,85,68,50,30.28,30.18,30.06,10,10,10,13,4,15,0.00,1,,9
2012-12-4,50,42,33,38,33,28,89,75,61,30.35,30.28,30.24,10,10,10,10,6,16,0.00,1,,36
2012-12-5,56,44,32,43,36,29,89,68,47,30.22,30.14,30.06,10,10,10,21,8,29,0.01,4,Rain,358
2012-12-6,55,46,36,39,33,26,92,67,41,30.06,30.02,29.95,10,10,10,20,10,23,T,1,,343
2012-12-7,51,39,26,29,17,6,78,49,20,30.15,30.08,30.03,10,10,10,24,11,29,0.00,0,,342
2012-12-8,51,37,22,19,15,11,60,42,23,30.07,30.04,30.01,10,10,10,,13,,0.00,0,,-1
2012-12-9,48,40,32,20,19,17,56,44,31,30.32,30.19,30.04,10,10,10,,,,0.00,0,,-1
2012-12-10,52,39,26,27,21,16,68,53,38,30.34,30.25,30.17,10,10,10,30,14,37,0.00,0,,344
2012-12-11,53,38,22,19,16,15,74,48,22,30.18,30.00,29.79,10,10,10,17,7,20,0.00,0,,99
2012-12-12,49,37,25,30,21,15,70,50,29,29.79,29.73,29.65,10,10,10,28,12,35,0.00,1,,162
2012-12-13,38,34,30,34,30,26,92,81,70,29.78,29.73,29.67,10,7,1,20,6,24,0.07,8,Snow,274
2012-12-14,37,32,27,27,23,18,85,68,51,29.88,29.75,29.67,10,10,5,21,9,25,T,6,Snow,322
2012-12-15,36,30,24,22,18,15,75,60,44,29.99,29.93,29.87,10,10,10,18,7,23,0.00,2,,334
2012-12-16,38,31,23,25,22,19,88,74,59,30.11,30.06,29.97,10,10,10,13,4,17,0.00,2,,132
2012-12-17,41,32,23,31,28,21,89,77,65,30.06,29.97,29.84,10,10,10,14,7,17,0.00,7,,134
2012-12-18,36,29,21,31,23,12,89,72,55,29.98,29.78,29.70,10,10,6,29,14,36,T,6,Snow,329
2012-12-19,31,21,11,10,4,-3,80,53,25,30.45,30.29,30.01,10,10,10,17,6,21,0.00,0,,4
2012-12-20,36,22,7,7,2,-3,69,46,22,30.44,30.35,30.25,10,10,10,20,8,24,0.00,0,,51
2012-12-21,42,25,7,10,5,-1,76,50,23,30.23,30.16,30.07,10,10,10,21,8,26,0.00,0,,132
2012-12-22,43,28,13,14,9,3,67,46,25,30.08,30.03,29.93,10,10,10,25,8,32,0.00,0,,139
2012-12-23,38,28,18,31,25,11,89,76,62,30.12,30.01,29.86,10,10,2,18,9,22,T,7,Snow,123
2012-12-24,37,27,16,31,24,7,92,68,44,30.24,29.99,29.85,10,8,2,30,13,36,0.02,5,Snow,322
2012-12-25,34,23,11,12,7,2,67,46,25,30.26,30.12,29.86,10,10,10,15,7,17,0.00,2,,106
2012-12-26,39,29,18,24,18,12,81,59,37,29.92,29.84,29.75,10,10,5,17,6,21,T,4,Snow,329
2012-12-27,36,26,16,20,17,10,81,64,47,30.19,30.03,29.89,10,10,10,22,11,32,0.00,2,,347
2012-12-28,33,22,10,15,11,3,76,59,41,30.27,30.19,30.11,10,10,10,16,9,21,0.00,2,,97
2012-12-29,34,27,20,25,17,14,88,68,47,30.09,30.03,29.96,10,9,2,10,4,16,T,8,Snow,340
2012-12-30,33,25,17,22,17,11,88,71,54,30.14,30.03,29.96,10,10,9,24,12,35,T,2,,343
2012-12-31,33,23,13,10,7,1,74,55,36,30.31,30.25,30.13,10,10,10,25,13,35,0.00,0,,341